Volver al catálogo

FENGYUN 1C DEB

ActivoSSO
NORAD 36699·DEBRIS·🇨🇳 China

Lanzado May 10, 1999 desde Taiyuan Satellite Launch Center

Loading…

Próximos Pases (próximas 24 horas)

TLE

ActualizadoSource: Space-Track

Época: Sep 14, 2026, 05:59 UTC

1 36699U 99025DZV 26257.24945105  .00000361  00000-0  16582-3 0  9995
2 36699  98.5760 250.0312 0094548  48.0356 312.8831 14.24605320772491

Sigue FENGYUN 1C DEB en tiempo real con AllMySat

Download on the App Store